Regional Weather Roundup
Issued by NWS

Home | Current Version | Previous Version | Text Only | Print | Product List | Glossary On
Versions: 1 2 3 4 5 6 7 8 9 10 11 12 13 14 15 16 17 18 19 20 21 22 23 24 25 26 27 28 29 30 31 32 33 34 35 36 37 38 39 40 41 42 43 44 45 46 47 48 49 50
000
ASUS44 KJAN 032110
RWRMS

MISSISSIPPI HOURLY WEATHER ROUNDUP
NATIONAL WEATHER SERVICE JACKSON MS
400 PM CDT THU SEP 03 2015

NOTE: "FAIR: INDICATES FEW OR NO CLOUDS BELOW 12,000 FEET WITH NO
SIGNIFICANT WEATHER AND/OR OBSTRUCTIONS TO VISIBILITY.

MSZ001>002-007>008-010>013-018>021-025>028-034>036-032200-
NORTHWEST MISSISSIPPI

CITY           SKY/WX    TMP DP  RH WIND       PRES   REMARKS
CLARKSDALE     FAIR      91  68  46 NE7       29.94F HX  95
CLEVELAND      FAIR      95  66  38 N3        29.92F HX  98
GREENWOOD      SUNNY     94  61  33 CALM      29.92F HX  94
GREENVILLE     MOSUNNY   95  67  39 N5        29.91F HX  99
OLIVE BRANCH   MOSUNNY   91  68  46 CALM      29.95F HX  95
OXFORD         FAIR      88  66  48 NE6       29.97F HX  90
TUNICA           N/A    N/A N/A N/A MISG        N/A
$$

MSZ003>006-009-014>017-022>024-029>033-037>039-032200-
NORTHEAST MISSISSIPPI

CITY           SKY/WX    TMP DP  RH WIND       PRES   REMARKS
COLUMBUS AFB   MOSUNNY   92  68  45 VRB7      29.92F HX  95
CORINTH        FAIR      91  66  43 CALM      29.93F HX  94
GOLDN TRIANGLE MOSUNNY   97  70  41 N7        29.93F HX 103
STARKVILLE     FAIR      91  64  40 N6        29.93F HX  93
TUPELO         SUNNY     91  68  46 NE6       29.94F HX  95
$$

MSZ040-058-032200-
CENTRAL MISSISSIPPI

CITY           SKY/WX    TMP DP  RH WIND       PRES   REMARKS
JACKSON INTL   PTSUNNY   92  66  42 CALM      29.92F HX  94
JACKSON HAWKNS MOSUNNY   95  66  38 MISG      29.92F HX  98
MERIDIAN KEY   MOSUNNY   90  69  50 W7        29.93F HX  94
MERIDIAN NAS   CLOUDY    83  69  62 NW13      29.94F
VICKSBURG      SUNNY     95  63  34 MISG      29.91F HX  96
$$

MSZ059>079-032200-
SOUTH MISSISSIPPI

CITY           SKY/WX    TMP DP  RH WIND       PRES   REMARKS
BROOKHAVEN     FAIR      91  63  38 NE3       29.94F HX  92
HATTIESBURG    MOSUNNY   94  64  37 S10       29.93F HX  95
MCCOMB         CLOUDY    80  74  81 S10G22    29.95S
NATCHEZ        PTSUNNY   93  68  43 N6        29.92F HX  97
PINE BELT      PTSUNNY   93  61  33 S9        29.94F HX  93
$$

MSZ080>082-032200-
COASTAL MISSISSIPPI

CITY           SKY/WX    TMP DP  RH WIND       PRES   REMARKS
BILOXI         CLOUDY    84  72  67 SW9       29.95F HX  90
PASCAGOULA     PTSUNNY   85  73  67 SW12      29.95F HX  91
GULFPORT       CLOUDY    83  72  69 SW8       29.95F
$$


USA.gov is the U.S. government's official web portal to all federal, state and local government web resources and services.